RH
76 71 68 64 69 72 70 71 71 63 57 50 44 38 37 66 81 89 99 100 92 100 93 79 73 91 88 95 97 97 94 92 78 95 92 92 98 86 93 66 79 85 95 93 83 95 90 43 44 54 63 54 62 63
61 62 58 56 55 52 52 52 57 64 62 60 67 72 64 46 66 98 100 99 98 100 97 90 81 73 71 70 92 92 100 85 82 92 97 99 98 98 94 97 62 96 82 89 73 69 49 43 48 46 51 62 59 70
75 74 75 75 72 72 70 66 65 62 59 68 78 77 82 74 62 85 92 88 94 100 98 98 90 78 81 74 66 94 93 97 95 99 100 99 98 98 97 97 88 70 69 80 67 60 56 50 46 50 50 56 60 65
80 80 80 78 78 79 79 83 82 78 75 79 88 64 80 85 85 84 90 83 91 99 99 84 79 76 74 77 66 66 86 90 91 100 100 99 98 99 98 91 98 81 67 71 68 61 57 52 59 55 57 60 68 64
83 85 85 86 85 83 81 80 79 79 79 78 68 83 80 77 78 90 87 98 94 97 97 96 76 80 79 78 73 70 76 96 100 99 99 97 100 98 98 98 91 81 72 79 75 56 67 65 60 57 65 69 71 76
85 85 85 82 79 84 83 79 80 79 76 76 75 74 75 83 84 99 80 99 99 100 100 98 88 94 83 79 79 85 88 99 99 99 99 99 98 96 99 91 68 73 69 62 74 68 63 61 58 55 73 75 79 80
84 81 81 79 80 79 78 77 76 76 75 76 76 78 69 77 81 86 86 100 99 100 100 99 98 94 91 90 90 94 89 96 97 98 98 98 98 98 98 89 55 74 84 65 65 73 72 64 79 71 77 76 72 74
77 78 77 77 76 75 75 77 77 74 78 71 75 73 76 66 81 91 99 96 99 100 100 98 90 97 92 96 98 94 98 98 98 97 98 97 97 98 96 80 85 86 82 84 81 82 79 78 81 84 74 79 83 79
76 76 76 74 76 78 73 75 77 78 74 81 80 79 86 98 98 96 85 84 88 100 99 98 95 94 90 92 94 98 97 98 97 98 98 96 97 95 81 86 84 84 78 72 81 86 83 91 84 72 77 78 83 80
76 76 75 75 72 77 79 76 76 75 81 84 85 76 96 86 90 91 98 97 100 100 99 98 93 91 94 96 96 87 98 98 98 96 98 98 96 80 75 83 85 86 80 88 82 74 76 76 71 71 78 77 82 85
79 74 73 73 72 76 81 77 78 82 82 83 94 95 92 91 89 97 93 98 97 97 97 94 90 88 92 97 88 96 97 91 97 96 96 95 90 86 85 81 81 85 84 83 77 82 83 82 84 82 79 77 77 82
85 80 73 74 77 74 75 76 75 92 98 81 83 88 92 87 88 96 95 93 97 79 93 97 97 99 98 91 99 98 97 95 95 95 97 94 88 81 79 75 71 80 82 84 79 86 83 85 83 86 85 84 81 81
86 81 82 79 81 82 81 75 79 93 100 99 98 96 90 88 93 93 95 91 84 89 97 92 94 97 97 98 98 97 97 96 90 93 92 89 87 88 82 78 73 77 72 81 83 74 69 75 78 87 84 74 78 83
88 89 86 82 81 79 75 69 72 100 100 99 98 93 95 98 92 91 92 96 96 94 94 89 92 97 97 98 96 97 94 96 93 92 92 90 84 82 82 86 84 69 73 72 76 69 73 78 79 78 78 77 84 88
83 86 89 89 84 78 78 73 78 99 100 99 99 95 96 88 94 96 97 93 91 90 93 94 94 92 96 98 92 96 96 98 94 89 89 83 76 85 82 82 82 82 79 78 74 80 64 65 74 74 72 73 75 78
90 96 92 88 86 90 87 84 96 99 99 99 99 97 93 96 96 98 97 97 91 93 93 95 90 97 90 97 97 93 98 93 84 90 82 64 48 64 65 61 57 54 58 61 61 71 78 80 79 80 78 78 78 91
95 90 85 84 82 82 84 99 100 100 99 99 95 95 92 93 90 93 91 92 75 93 99 95 97 93 96 96 96 93 94 78 60 57 53 52 58 57 53 59 56 63 76 82 83 82 82 79 79 80 79 76 86 88
94 88 84 82 83 98 100 100 100 99 97 95 96 73 88 90 69 66 75 93 90 95 95 91 90 96 95 94 74 56 64 55 59 61 57 50 62 58 58 76 81 84 87 82 84 85 81 79 77 76 76 80 90 87
95 88 80 81 87 100 100 100 100 98 89 91 77 65 70 60 62 60 73 72 70 79 92 98 96 95 77 66 64 61 61 59 57 53 56 55 55 75 77 81 84 82 83 84 81 78 76 75 75 77 81 92 90 91
78 78 79 81 90 100 99 99 100 99 96 82 77 73 71 69 63 62 66 93 91 94 97 96 80 62 58 52 53 59 57 68 86 83 64 68 75 82 85 82 84 80 78 75 74 71 75 76 76 78 82 86 87 89
93 74 80 88 92 98 100 99 98 92 95 96 84 84 88 90 80 78 78 91 94 96 93 74 62 56 54 53 64 68 81 78 92 92 91 93 80 74 74 75 74 77 78 80 82 81 80 80 81 86 89 92 94 96
87 85 89 92 98 100 99 99 96 97 99 96 94 96 91 92 86 82 95 95 96 75 70 62 60 65 72 84 79 73 78 74 77 90 89 80 88 83 79 77 80 84 84 83 83 85 84 86 88 92 94 94 93 94
92 94 95 100 99 98 92 87 98 98 97 96 98 96 97 98 95 96 96 94 88 91 90 91 88 81 83 78 78 75 77 81 83 82 80 75 73 74 77 78 76 84 88 83 81 85 86 85 89 92 94 91 92 94
95 98 99 97 98 95 94 97 97 97 96 96 96 96 96 99 98 98 96 94 96 94 90 87 82 94 90 81 90 84 84 80 80 80 78 79 88 86 83 85 84 82 82 83 88 91 93 93 88 91 92 94 91 93
97 88 97 93 96 96 98 96 96 97 96 94 95 96 97 96 96 96 97 97 93 93 91 88 87 93 98 97 88 81 84 89 96 98 83 82 84 88 86 85 84 82 82 94 94 91 92 93 93 93 94 94 94 93
96 86 99 92 97 99 94 97 96 95 96 96 95 97 97 96 95 93 100 99 99 95 95 95 97 96 94 86 97 94 95 96 97 100 85 85 88 98 100 97 92 83 82 96 100 96 94 93 94 94 94 93 93 95
96 95 96 96 97 97 96 97 95 96 96 97 96 97 97 96 94 100 94 92 93 97 99 99 98 97 97 97 96 94 93 94 98 94 83 75 72 76 89 99 96 93 100 100 98 99 96 95 95 94 95 95 95 96
96 95 99 96 96 96 95 96 96 96 96 96 97 97 96 96 97 92 93 98 98 98 98 98 98 98 99 99 98 98 96 94 77 69 65 68 72 74 80 90 95 100 100 100 99 100 99 99 98 96 97 96 95 93
97 92 93 95 95 95 95 95 95 96 94 95 96 95 95 92 95 96 98 100 98 98 98 98 97 98 98 98 97 96 100 98 97 97 97 93 87 82 88 92 97 100 100 100 100 100 100 98 98 98 98 99 98 96
96 95 95 95 96 95 96 95 95 95 96 95 95 95 94 95 99 99 99 98 99 100 99 99 99 98 100 100 100 94 99 100 94 100 100 100 98 99 98 100 99 100 100 100 100 100 99 97 95 90 92 91 93 96
90 95 97 97 98 99 98 95 92 97 98 99 98 98 98 98 100 98 97 100 100 98 99 99 99 100 99 100 100 96 97 80 55 94 100 100 99 100 100 96 98 100 95 100 100 100 100 100 100 99 98 98 96 95
97 100 100 100 98 95 98 100 100 100 100 100 100 99 100 100 100 100 96 93 95 98 99 100 100 100 100 100 100 94 98 60 72 97 93 100 100 100 93 89 100 93 93 96 100 100 100 100 100 100 100 99 99 97
98 98 97 99 98 92 95 99 99 100 99 100 100 100 100 100 100 99 100 99 100 100 100 100 100 100 100 100 100 98 90 70 90 98 100 95 91 92 95 93 100 96 92 96 100 100 100 100 100 100 100 100 100 99
Wind_Speed
4 3 2 1 1 2 3 4 6 6 7 8 8 8 8 8 7 5 5 8 7 2 4 7 7 5 2 2 4 4 2 1 1 4 4 4 4 4 1 4 7 8 7 6 4 5 9 6 5 3 6 1 5 8
3 3 2 2 2 3 3 4 5 7 8 9 10 10 9 8 7 3 5 5 10 4 4 6 13 17 12 7 4 4 2 4 4 3 3 1 3 3 4 4 3 4 8 4 10 7 4 7 7 8 5 5 7 6
3 3 4 4 4 4 5 6 6 7 8 9 11 11 11 10 8 4 10 8 2 3 5 3 6 16 21 24 17 4 2 4 3 2 1 1 6 3 4 5 3 4 5 4 3 7 12 10 13 6 8 8 8 5
4 5 5 6 7 7 8 8 8 8 8 9 10 12 11 11 11 8 7 8 6 2 3 3 4 4 7 12 18 13 4 5 5 2 2 2 3 5 3 3 3 4 4 8 18 19 16 8 6 12 13 10 10 13
7 8 7 7 8 9 9 10 10 10 11 11 11 10 12 15 13 9 9 11 13 4 3 4 11 7 5 4 5 7 7 3 2 1 3 4 2 2 2 1 7 6 9 8 12 10 2 1 8 8 7 8 9 11
8 8 9 9 8 10 11 11 12 12 13 12 11 12 11 13 9 2 2 2 9 11 2 3 1 3 4 4 7 7 10 2 3 3 3 2 2 2 3 6 8 9 7 11 6 5 3 8 6 4 6 8 10 10
9 10 10 10 11 12 12 12 12 13 14 14 13 13 13 10 8 3 2 2 7 7 2 3 3 2 2 2 1 1 1 1 1 2 3 2 2 3 3 8 23 3 4 1 4 5 4 6 5 11 12 16 18 20
9 9 11 12 13 13 12 14 14 14 14 13 14 15 16 14 9 6 5 6 2 3 2 3 4 1 4 2 1 0 2 1 2 1 0 2 1 2 5 7 2 1 3 4 2 1 6 8 10 10 17 13 10 11
10 10 13 13 13 13 14 13 14 14 14 13 14 17 9 2 1 1 4 6 8 5 2 3 3 4 1 2 1 1 1 2 1 2 2 3 3 6 8 2 1 4 4 4 5 5 7 4 9 10 9 12 9 14
11 12 14 14 14 14 13 13 11 12 12 11 10 2 2 1 7 7 0 2 2 4 3 4 2 3 2 1 2 2 2 2 2 2 2 3 4 8 12 7 7 7 9 5 3 6 6 8 9 8 8 11 11 13
13 13 14 14 14 14 13 11 11 10 7 3 2 2 4 5 1 1 2 3 3 3 3 2 3 4 2 2 3 3 1 1 2 3 2 2 4 5 5 4 5 6 9 11 7 5 7 10 12 13 14 14 19 20
15 15 15 14 13 13 12 12 11 7 4 3 3 5 3 2 2 2 3 2 4 4 1 1 1 1 1 1 1 1 2 2 6 2 2 4 4 6 2 5 9 7 8 8 15 13 17 15 19 16 14 16 22 26
17 17 16 16 15 13 12 11 10 9 11 8 2 2 1 1 4 6 6 4 4 3 2 2 1 0 1 1 2 1 3 5 1 2 4 5 4 4 6 7 10 7 16 12 15 21 21 21 27 22 21 29 27 27
18 17 16 16 15 14 13 11 9 8 6 2 4 5 5 5 6 4 2 2 1 2 2 3 1 1 1 2 2 3 3 2 3 4 6 3 5 5 4 4 4 11 8 11 11 20 20 21 20 25 25 29 24 24
19 18 18 18 17 15 13 12 7 12 4 4 4 5 7 4 0 2 2 2 2 1 2 1 1 2 2 3 3 2 1 4 5 5 3 4 5 4 4 4 6 8 10 10 15 11 16 20 18 25 33 33 30 31
20 20 18 16 16 16 14 12 10 10 5 3 5 5 2 2 2 1 3 3 3 3 1 0 2 3 7 3 5 7 3 7 4 3 4 5 9 5 6 6 8 11 10 12 15 15 18 21 23 26 34 31 30 25
18 10 13 13 13 13 12 9 9 6 4 5 5 4 2 4 5 4 5 5 13 4 3 2 5 7 1 3 4 3 5 5 7 7 7 9 7 8 10 7 10 10 11 14 17 19 21 26 29 24 17 26 26 26
22 22 21 19 17 16 16 10 7 6 10 7 5 8 4 4 9 9 6 3 4 4 3 5 3 4 4 5 10 12 8 10 7 8 8 11 7 10 7 4 11 12 14 18 18 21 23 22 19 15 23 27 27 24
23 22 19 19 16 7 4 6 9 5 10 3 7 10 8 10 9 15 2 11 13 4 2 3 5 4 10 7 13 13 9 7 9 10 7 5 10 5 9 10 13 16 17 18 20 19 21 21 22 24 24 23 20 22
17 17 17 16 14 5 4 4 6 4 4 6 6 10 7 10 10 9 8 4 5 3 5 5 8 14 13 14 10 8 8 4 2 4 10 4 11 15 13 14 12 17 18 20 18 21 20 19 20 21 23 25 24 22
18 11 8 8 5 11 4 3 4 4 3 3 4 5 4 2 8 11 9 4 4 4 5 10 13 13 13 13 5 3 4 4 0 1 3 5 10 12 12 13 15 14 13 15 13 17 19 17 22 24 25 25 24 25
12 13 7 8 6 6 5 11 4 1 4 3 0 2 4 6 8 7 4 5 4 9 7 9 10 7 4 3 3 5 3 4 4 5 8 10 4 5 8 13 14 10 13 16 17 16 20 23 25 25 24 25 26 24
6 2 4 5 5 4 5 4 4 4 4 3 1 3 3 3 3 2 4 5 5 2 3 4 4 5 3 3 6 7 8 8 4 5 7 8 11 12 13 14 14 13 12 18 20 21 21 26 26 26 25 26 25 24
4 3 4 4 4 4 3 3 2 2 2 2 3 4 3 3 1 2 4 3 2 3 5 5 8 2 3 4 3 6 9 7 7 9 8 9 7 11 13 15 16 16 17 22 22 22 22 22 26 25 24 23 24 22
2 5 3 7 2 1 2 3 3 2 4 3 3 4 1 1 2 3 3 2 3 5 5 8 7 2 2 2 4 8 7 8 9 3 12 7 11 14 13 13 17 18 21 19 18 24 25 25 25 24 24 23 22 24
5 5 8 4 2 4 4 3 4 4 2 3 4 1 1 1 3 5 2 4 3 4 5 5 4 4 3 7 2 4 8 11 11 6 11 7 16 12 8 6 8 19 20 24 27 27 28 25 24 25 24 25 25 23
6 5 1 1 1 1 3 2 1 2 3 5 2 1 1 3 5 2 1 4 3 6 8 7 6 6 5 8 9 9 12 10 8 14 20 17 12 12 13 12 14 23 34 32 29 29 28 28 26 25 25 25 23 21
1 2 2 2 3 2 3 3 3 4 2 2 2 3 3 2 2 2 2 6 8 8 7 5 6 8 8 8 9 11 8 13 14 10 5 6 11 11 16 23 26 26 28 29 30 30 28 29 30 29 27 25 26 26
1 1 2 3 3 3 3 2 2 2 2 2 2 2 2 2 2 4 4 10 9 7 7 7 9 10 10 7 10 8 10 16 17 8 8 6 8 16 31 31 29 27 29 32 31 28 28 29 29 27 24 21 22 17
2 3 3 3 3 3 1 1 2 2 1 1 1 1 2 2 3 5 6 8 9 8 8 6 7 9 9 10 11 14 12 9 16 9 3 5 12 30 33 28 30 29 32 30 30 32 29 30 27 26 24 21 17 12
4 3 3 2 3 0 1 3 4 3 1 0 1 1 1 1 3 6 11 8 9 8 8 9 7 7 9 10 10 9 8 11 17 15 15 20 24 25 23 27 27 28 30 27 26 26 29 28 23 22 21 21 18 12
3 2 1 3 4 4 3 2 1 1 3 2 2 1 0 1 1 2 9 9 9 11 10 10 9 7 8 5 7 8 9 13 14 17 20 21 22 20 25 21 23 26 25 25 26 25 26 24 23 24 23 24 24 19
3 2 2 3 4 6 4 4 3 2 2 2 2 2 1 1 1 1 3 7 5 7 11 12 10 6 7 2 8 12 12 15 14 14 15 16 18 19 21 22 20 24 23 24 25 25 26 25 25 26 27 26 26 27
Wind_Direction
89 99 105 73 32 25 16 360 353 348 346 335 316 308 313 313 319 311 263 233 203 198 268 205 190 164 122 196 178 142 112 180 126 212 208 231 217 218 298 195 181 169 175 201 199 217 269 154 110 200 246 314 311 322
72 52 49 44 33 25 4 351 351 344 345 349 347 344 335 323 316 301 265 257 234 222 273 257 245 242 237 215 143 191 221 156 204 174 200 251 236 203 212 254 112 209 208 212 189 213 241 191 228 268 355 342 337 316
10 0 340 341 349 344 342 345 341 344 350 351 348 341 338 330 326 274 261 273 236 296 280 251 244 257 241 232 219 170 224 189 193 193 138 218 241 137 210 230 231 265 189 222 337 252 276 292 303 7 340 332 321 297
324 320 320 326 328 328 332 325 326 332 336 339 338 341 338 331 317 289 262 265 240 258 266 266 291 251 248 237 229 225 132 108 107 105 216 200 220 194 241 263 199 202 132 255 267 282 286 256 18 339 338 335 331 324
321 311 309 315 322 331 330 329 329 334 335 339 341 340 341 337 314 282 266 245 241 229 275 289 298 269 256 242 213 217 173 133 156 189 201 213 234 229 209 6 250 195 235 241 262 265 333 354 330 324 343 317 308 307
308 306 311 317 316 313 310 312 319 323 326 327 329 322 331 350 351 341 254 283 232 234 299 293 166 43 74 137 163 175 185 163 185 203 215 217 150 205 257 264 240 200 219 233 277 19 313 287 305 333 285 291 285 286
305 315 323 322 313 309 306 304 304 304 306 310 319 323 325 316 330 270 266 294 330 184 232 276 259 118 140 141 94 127 149 189 196 218 228 233 178 207 252 260 267 259 237 338 41 28 358 343 288 302 299 288 295 286
298 305 311 310 306 306 304 300 298 297 299 301 306 311 312 306 281 270 261 276 304 267 265 264 265 290 177 152 157 306 146 172 214 250 151 211 117 230 256 252 320 60 76 70 14 207 224 253 284 278 276 285 301 303
299 304 305 301 297 297 298 299 295 294 295 299 297 306 301 238 211 236 281 271 257 235 252 229 229 261 209 77 71 164 229 229 155 250 218 144 196 227 241 199 182 191 163 236 268 278 287 251 278 288 287 299 290 301
296 297 301 297 298 294 294 293 288 291 296 305 307 322 289 235 309 304 203 213 201 209 232 240 307 248 148 115 179 199 186 255 249 201 105 227 259 269 265 235 235 210 204 161 214 296 264 266 274 284 283 291 281 278
300 295 293 294 289 289 291 292 290 289 294 282 334 260 280 310 316 226 259 215 169 233 215 240 221 227 223 156 215 204 167 198 261 250 161 245 262 251 238 246 251 231 209 208 235 283 278 271 278 283 288 288 290 285
291 290 291 290 286 280 284 280 281 262 221 240 273 288 320 286 225 244 219 227 228 240 327 124 100 324 139 285 252 196 218 151 245 153 215 254 250 256 216 251 259 241 232 250 249 258 269 271 270 267 268 274 280 281
292 290 290 290 286 281 278 278 281 263 233 232 236 296 248 248 239 217 204 220 223 203 176 172 186 207 88 316 249 155 238 231 76 218 235 232 258 250 237 236 261 275 264 261 270 273 278 277 279 270 275 283 282 281
291 289 286 283 283 283 281 275 274 223 215 219 182 230 208 222 233 201 199 144 227 84 148 197 117 215 150 189 212 221 224 75 251 236 235 244 237 245 267 221 200 263 267 269 269 276 275 274 280 285 288 290 284 280
290 287 286 283 279 273 267 261 237 212 241 228 212 228 227 237 281 76 56 32 213 164 116 59 92 208 194 256 211 237 299 247 213 233 245 257 265 260 251 254 245 258 265 271 273 267 288 304 308 304 303 302 303 300
292 293 284 284 273 266 259 251 224 189 220 246 237 243 147 32 284 195 182 227 178 164 73 75 208 227 229 216 185 218 207 223 242 220 247 281 295 289 277 273 263 277 280 280 293 305 308 308 305 304 304 307 308 311
298 275 286 285 282 275 263 218 172 204 235 222 239 227 167 237 231 201 184 204 167 139 196 170 211 221 317 234 223 207 215 235 260 266 281 271 269 285 288 280 300 312 315 315 308 307 307 310 306 303 303 310 309 309
281 283 283 281 275 264 250 210 197 211 228 224 227 238 203 229 253 256 219 133 140 197 160 213 221 206 237 237 251 257 257 267 272 264 263 279 263 269 294 322 324 321 310 312 315 313 310 308 309 306 308 308 308 309
285 282 280 281 274 244 227 215 197 235 217 208 231 238 225 243 238 248 227 183 201 174 159 189 224 219 236 243 251 262 273 267 269 273 270 290 314 22 6 359 341 324 322 321 314 309 306 305 304 308 310 310 307 310
294 290 285 279 270 241 238 242 214 258 224 223 229 245 233 239 247 245 244 163 149 154 204 220 237 248 250 256 265 268 269 265 157 296 288 311 26 16 357 336 324 322 316 313 310 314 312 313 315 315 315 313 312 307
307 306 300 289 249 228 257 239 229 233 253 220 220 190 224 201 233 237 238 142 175 200 226 228 244 256 263 266 293 13 55 66 127 178 341 315 343 345 337 329 321 316 313 313 312 314 318 310 313 314 311 308 308 307
288 301 272 240 236 232 232 216 236 275 193 224 305 229 234 240 235 226 136 186 217 230 225 252 255 268 286 92 58 72 61 34 18 340 327 330 333 333 332 322 320 317 314 309 311 310 312 311 311 312 313 315 320 316
278 254 251 237 245 253 251 342 247 195 225 226 149 223 228 224 222 90 224 207 240 52 67 54 41 45 76 94 98 70 50 34 23 353 343 338 319 315 308 305 314 313 308 311 316 313 310 312 313 310 318 318 316 316
243 224 226 229 226 260 2 305 327 298 325 276 230 233 243 210 130 203 249 247 60 27 31 21 17 41 52 69 54 61 30 15 354 338 341 332 315 298 306 305 311 313 309 308 308 307 308 310 314 313 311 311 313 312
190 248 176 249 224 259 255 292 273 274 252 222 271 260 232 152 210 237 244 20 23 22 15 14 25 14 51 24 51 66 37 14 354 330 329 318 304 317 319 323 323 325 325 314 315 313 309 308 307 305 303 305 304 302
222 221 189 219 222 177 215 242 208 224 270 268 249 345 311 240 246 245 36 357 8 15 8 8 1 353 36 33 347 3 358 339 337 305 301 319 321 310 297 317 326 328 335 322 308 303 303 305 304 304 304 304 307 310
228 244 297 74 324 328 279 236 255 236 242 225 244 291 247 240 239 56 79 27 353 357 342 345 354 356 346 335 339 339 337 339 313 293 304 314 327 331 318 298 306 313 319 319 320 316 312 309 305 299 295 294 291 288
279 7 230 318 293 239 277 281 223 225 242 3 293 234 235 297 349 8 7 348 339 337 339 346 357 350 344 338 343 348 351 349 348 348 360 21 2 5 352 339 333 325 325 324 323 321 317 312 303 295 284 277 280 289
263 39 305 265 252 244 228 260 337 45 343 318 304 310 17 61 32 355 345 342 345 347 359 3 358 9 18 33 23 29 23 20 20 11 6 343 340 336 346 345 344 335 332 328 331 331 329 328 328 328 333 318 276 272
27 346 279 257 236 252 81 8 322 10 262 242 281 174 153 116 58 20 9 7 7 359 351 354 9 27 22 18 2 16 30 17 11 4 314 311 310 328 337 336 337 339 338 337 337 339 345 346 347 348 352 355 350 329
340 305 280 277 274 347 356 315 280 244 256 139 34 356 50 122 138 38 24 15 9 10 13 14 13 20 20 15 9 352 347 355 353 354 342 333 336 334 338 340 346 341 348 350 350 351 352 353 351 350 351 355 356 354
331 11 336 296 291 298 8 27 278 40 354 23 6 39 130 225 136 57 7 18 25 19 10 5 356 343 357 350 9 13 341 339 352 357 350 344 341 349 345 349 353 352 -0 5 6 5 7 3 1 8 7 8 9 10
323 343 313 334 324 337 326 0 344 347 36 37 3 2 40 24 304 318 329 1 5 353 351 343 336 310 326 262 10 9 4 6 1 351 354 352 352 353 353 1 1 3 9 16 17 17 15 16 13 16 18 19 20 27